[[{"header":{"parameterUnit":"m.s-1","parameterCategory":1,"la1":30.2991,"la2":30.254,"lo1":-89.0895,"lo2":-89.0444,"dy":0.0017,"dx":0.0017,"nx":28,"ny":28,"refTime":"2024-08-23T21:00:00:Z","depth":0,"parameterNumber":2,"parameterNumberName":"U-component_of_WINDS"},"data":[0,0,0,0,0,0,0,0,0,0,0,0,0,0,0,0,0,0,0,0,0,0,0,0,0,0,0,0,0,0,0,0,0,0,0,0,0,0,0,0,0,0,0,0,0,0,0,0,0,0,0,0,0,0,0,0,0,0,-6.311,-6.311,0,-6.3131,-6.3132,-6.3132,-6.2992,-6.2988,-6.2984,-6.298,-6.3005,-6.3009,-6.3013,0,0,0,0,0,0,0,0,0,0,0,0,0,-6.2952,-6.2956,-6.311,-6.311,-6.3111,-6.3131,-6.3132,-6.3132,-6.2993,-6.2988,-6.2983,-6.2978,-6.3003,-6.3009,-6.3014,0,0,0,0,0,0,0,0,0,0,0,0,0,-6.3002,-6.2957,-6.311,-6.3044,-6.3038,-6.3131,-6.3132,-6.3132,-6.2994,-6.2988,-6.2982,-6.2976,-6.3002,-6.3008,-6.3015,-6.3174,0,0,-6.3034,-6.3037,0,0,0,0,0,0,0,0,-6.3,-6.3008,-6.3053,-6.3048,-6.3042,-6.3053,-6.3085,-6.3146,-6.2995,-6.3011,-6.298,-6.2973,-6.3026,-6.303,-6.3047,-6.3175,-6.3176,-6.3035,-6.3039,-6.3042,-6.3044,0,0,0,0,0,0,0,-6.2996,-6.3006,-6.3118,-6.3054,-6.3047,-6.3014,-6.3014,-6.3096,-6.3051,-6.3009,-6.2999,-6.3003,-6.3022,-6.3041,-6.3047,-6.3176,-6.3035,-6.3041,-6.3045,-6.3047,-6.3438,-6.3444,0,0,0,0,0,0,-6.3001,-6.3005,-6.3118,-6.3119,-6.3006,-6.3022,-6.3022,-6.3055,-6.305,-6.3043,-6.3008,-6.2996,-6.3033,-6.3039,-6.3047,-6.3234,-6.3042,-6.3048,-6.3052,-6.3431,-6.3439,-6.3446,0,0,0,0,0,0,-6.2999,-6.3013,-6.3117,-6.3059,-6.307,-6.3031,-6.3069,-6.3059,-6.3078,-6.3049,-6.3041,-6.3036,-6.3029,-6.3038,-6.3143,-6.3233,-6.3051,-6.3057,-6.3424,-6.3434,-6.3443,-6.3609,0,0,0,0,0,0,-6.2995,-6.3013,-6.3072,-6.3061,-6.3073,-6.3212,-6.3075,-6.3064,-6.3089,-6.3074,-6.3073,-6.3067,-6.3025,-6.3135,-6.315,-6.3238,-6.3062,-6.3416,-6.3428,-6.344,-6.3595,-6.3623,-6.3647,0,0,0,0,0,-6.2989,-6.3118,-6.3075,-6.309,-6.3146,-6.3218,-6.3225,-6.3172,-6.3097,-6.3157,-6.3139,-6.3067,-6.3221,-6.3147,-6.3163,-6.3255,-6.341,-6.3425,-6.3439,-6.3583,-6.3617,-6.3646,0,0,0,0,0,0,-6.3139,-6.3115,-6.3068,-6.3196,-6.321,-6.3194,-6.3267,-6.3209,-6.3245,-6.323,-6.3163,-6.3165,-6.3282,-6.3279,-6.3196,-6.3409,-6.3302,-6.3321,-6.3407,-6.3439,-6.3464,-6.3462,-6.3067,0,0,0,0,0,-6.3188,-6.3247,-6.3222,-6.3338,-6.3348,-6.3307,-6.3336,-6.3294,-6.3306,-6.3312,-6.3301,-6.3316,-6.3368,-6.3403,-6.3449,-6.3594,-6.3593,-6.3666,-6.3691,-6.3713,-6.3729,-6.3808,-6.384,-6.3494,-6.3494,-6.3494,0,0,-6.3287,-6.3281,-6.3323,-6.3368,-6.3374,-6.3438,-6.3313,-6.3385,-6.3432,-6.3323,-6.3421,-6.3415,-6.3428,-6.3555,-6.361,-6.3556,-6.3825,-6.3731,-6.3749,-6.3753,-6.3826,-6.3859,-6.3888,-6.3504,-6.3502,-6.35,0,0,-6.3502,-6.3503,-6.36,-6.3609,-6.3619,-6.3591,-6.3615,-6.3608,-6.36,-6.3698,-6.3618,-6.3674,-6.3763,-6.3776,-6.3795,-6.4017,-6.3954,-6.4034,-6.4169,-6.4246,-6.4273,-6.4297,-6.4377,-6.4407,-6.4051,-6.4052,-6.4052,0,-6.3625,-6.3716,-6.3657,-6.3736,-6.3759,-6.3663,-6.3762,-6.3773,-6.3799,-6.3818,-6.3757,-6.3869,-6.3871,-6.3999,-6.4054,-6.4072,-6.4098,-6.4033,-6.4274,-6.4297,-6.4319,-6.4394,-6.4425,-6.4061,-6.406,-6.4059,-6.4058,0,-6.3867,-6.3933,-6.401,-6.4037,-6.4069,-6.4157,-6.4113,-6.4153,-6.411,-6.4089,-6.4192,-6.4191,-6.4236,-6.4264,-6.4222,-6.4388,-6.4354,-6.4285,-6.4176,-6.4362,-6.4432,-6.4461,-6.4075,-6.4072,-6.4069,-6.4066,0,0,-6.4175,-6.4169,-6.4199,-6.421,-6.4216,-6.4266,-6.4351,-6.4394,-6.443,-6.4452,-6.4523,-6.4602,-6.4539,-6.456,-6.4519,-6.4587,-6.4765,-6.4509,-6.4508,-6.4557,-6.4949,-6.5001,-6.5035,-6.4723,-6.4728,-6.4732,-6.4948,0,-6.4384,-6.4528,-6.4479,-6.4625,-6.4686,-6.4597,-6.4671,-6.4684,-6.4668,-6.4718,-6.4701,-6.4758,-6.467,-6.4682,-6.4745,-6.473,-6.4842,-6.4713,-6.4789,-6.4792,-6.4788,-6.5072,-6.5126,-6.533,-6.4975,-6.498,-6.4983,0,-6.4647,-6.4679,-6.4833,-6.4829,-6.4853,-6.492,-6.4957,-6.5006,-6.5019,-6.5003,-6.5028,-6.4974,-6.5059,-6.4951,-6.5068,-6.4982,-6.501,-6.5008,-6.5014,-6.5019,-6.4899,-6.5084,-6.5393,-6.5424,-6.5025,-6.5022,-6.5019,0,-6.4857,-6.4939,-6.5041,-6.5054,-6.5052,-6.5102,-6.5105,-6.5112,-6.5142,-6.5175,-6.5194,-6.5237,-6.526,-6.5295,-6.5255,-6.518,-6.5379,-6.5267,-6.5369,-6.537,-6.5414,-6.5412,-6.5732,-6.5433,-6.5433,-6.5432,-6.5432,0,-6.5096,-6.5193,-6.5135,-6.5198,-6.5305,-6.5249,-6.5357,-6.5349,-6.5357,-6.5418,-6.5345,-6.5404,-6.5347,-6.5402,-6.5371,-6.5473,-6.5485,-6.5475,-6.5465,-6.5481,-6.5483,-6.5498,-6.5483,-6.544,-6.5439,-6.5437,-6.5436,0,-6.5347,-6.5312,-6.5418,-6.5409,-6.5409,-6.5489,-6.5481,-6.554,-6.552,-6.5598,-6.5613,-6.5582,-6.5643,-6.5606,-6.5668,-6.5647,-6.5782,-6.5753,-6.5777,-6.5769,-6.5873,-6.5864,-6.6214,-6.6258,-6.5932,-6.5935,-6.5937,0,-6.5501,-6.5574,-6.5573,-6.5609,-6.5616,-6.5674,-6.5704,-6.5652,-6.5687,-6.5709,-6.5766,-6.5821,-6.5861,-6.5963,-6.5947,-6.5994,-6.5966,-6.6086,-6.5973,-6.5987,-6.5969,-6.5965,-6.5972,-6.6109,-6.6112,-6.6116,-6.6118,0,-6.5779,-6.5759,-6.5805,-6.5846,-6.5884,-6.5914,-6.5938,-6.5972,-6.592,-6.5964,-6.6025,-6.6057,-6.612,-6.6176,-6.6217,-6.622,-6.6162,-6.6154,-6.618,-6.6197,-6.6208,-6.6204,-6.5839,-6.6146,-6.6143,-6.6141,-6.614,-6.6139,-6.5987,-6.6048,-6.6057,-6.6112,-6.6124,-6.6149,-6.6204,-6.6191,-6.6241,-6.6288,-6.6255,-6.6328,-6.6342,-6.6391,-6.6403,-6.646,-6.6412,-6.645,-6.6459,-6.6469,-6.6484,-6.62,-6.6468,-6.6467,-6.6466,-6.6465,-6.6465,0,-6.6261,-6.6263,-6.6314,-6.635,-6.6394,-6.6334,-6.6358,-6.6399,-6.6464,-6.6481,-6.6523,-6.6595,-6.6649,-6.6638,-6.6687,-6.6736,-6.671,-6.6751,-6.6746,-6.6749,-6.6524,-6.6496,-6.677,-6.677,-6.677,-6.677,-6.677,-6.677,-6.6409,-6.6509,-6.6491,-6.6598,-6.66,-6.667,-6.6689,-6.6712,-6.6726,-6.6809,-6.6853,-6.6846,-6.6853,-6.6902,-6.695,-6.6946,-6.6968,-6.7018,-6.7004,-6.6794,-6.6764,-6.6735,-6.6709,-6.7023,-6.7024,-6.7224,-6.7226,-6.7227]},{"header":{"parameterUnit":"m.s-1","parameterCategory":1,"la1":30.2991,"la2":30.254,"lo1":-89.0895,"lo2":-89.0444,"dy":0.0017,"dx":0.0017,"nx":28,"ny":28,"refTime":"2024-08-23T21:00:00:Z","depth":0,"parameterNumber":3,"parameterNumberName":"V-component_of_WINDS"},"data":[0,0,0,0,0,0,0,0,0,0,0,0,0,0,0,0,0,0,0,0,0,0,0,0,0,0,0,0,0,0,0,0,0,0,0,0,0,0,0,0,0,0,0,0,0,0,0,0,0,0,0,0,0,0,0,0,0,0,0.7261,0.7262,0,0.7331,0.7332,0.7333,0.7408,0.7409,0.741,0.7411,0.7478,0.7479,0.748,0,0,0,0,0,0,0,0,0,0,0,0,0,0.7191,0.7192,0.7261,0.7262,0.7263,0.7331,0.7332,0.7333,0.7407,0.7409,0.741,0.7411,0.7478,0.7479,0.748,0,0,0,0,0,0,0,0,0,0,0,0,0,0.7237,0.7192,0.7261,0.7309,0.7314,0.7331,0.7332,0.7333,0.7407,0.7409,0.741,0.7412,0.7478,0.7479,0.748,0.7455,0,0,0.7484,0.7484,0,0,0,0,0,0,0,0,0.7234,0.7239,0.7301,0.7305,0.7311,0.7362,0.7332,0.7374,0.7407,0.7371,0.7411,0.7413,0.7438,0.7443,0.7452,0.7458,0.7461,0.7484,0.7485,0.7485,0.7486,0,0,0,0,0,0,0,0.7231,0.7237,0.7289,0.7302,0.7308,0.7326,0.7334,0.734,0.7395,0.7375,0.738,0.7388,0.7441,0.7451,0.7454,0.7462,0.7484,0.7485,0.7486,0.7486,0.7452,0.745,0,0,0,0,0,0,0.7221,0.7234,0.7287,0.7291,0.7276,0.7326,0.7335,0.7344,0.7395,0.7404,0.7386,0.7391,0.7448,0.7453,0.7457,0.7431,0.7485,0.7486,0.7487,0.7453,0.7451,0.745,0,0,0,0,0,0,0.7219,0.7225,0.7284,0.7264,0.7273,0.7325,0.7335,0.7345,0.7354,0.7404,0.7414,0.7386,0.745,0.7455,0.7455,0.7434,0.7487,0.7488,0.7455,0.7453,0.745,0.7378,0,0,0,0,0,0,0.7217,0.7224,0.7215,0.7263,0.7274,0.7281,0.7334,0.7345,0.7357,0.7363,0.7406,0.7415,0.7451,0.7453,0.7457,0.7437,0.7489,0.7457,0.7454,0.7451,0.7382,0.7373,0.7365,0,0,0,0,0,0.7214,0.7191,0.7214,0.722,0.7264,0.728,0.7286,0.7329,0.7355,0.7346,0.7378,0.7413,0.7436,0.7453,0.7457,0.7437,0.7459,0.7455,0.7451,0.7386,0.7375,0.7366,0,0,0,0,0,0,0.7138,0.7198,0.7225,0.7217,0.7243,0.7293,0.7283,0.7316,0.7334,0.734,0.7392,0.7401,0.7395,0.7417,0.7433,0.7416,0.7453,0.745,0.7401,0.7391,0.7383,0.7377,0.749,0,0,0,0,0,0.7121,0.713,0.7182,0.717,0.7182,0.723,0.7239,0.727,0.7298,0.7309,0.7341,0.7367,0.738,0.7387,0.7402,0.7387,0.7397,0.7375,0.7367,0.736,0.7356,0.7349,0.734,0.7437,0.7438,0.7438,0,0,0.7084,0.7118,0.712,0.7155,0.7179,0.7186,0.7239,0.7244,0.7249,0.731,0.7312,0.7336,0.7368,0.736,0.7359,0.7378,0.7331,0.7355,0.7349,0.7349,0.7344,0.7335,0.7326,0.7435,0.7435,0.7436,0,0,0.7021,0.7048,0.7041,0.7065,0.7101,0.7133,0.7131,0.7177,0.7196,0.7199,0.7245,0.7252,0.7273,0.7294,0.7307,0.7254,0.7287,0.7257,0.7212,0.7205,0.7197,0.719,0.717,0.7162,0.7254,0.7254,0.7253,0,0.6971,0.6984,0.7033,0.7036,0.7049,0.7107,0.7099,0.7119,0.7158,0.7165,0.7188,0.7216,0.7242,0.7239,0.7226,0.7236,0.7235,0.7251,0.7194,0.7188,0.7183,0.7164,0.7156,0.725,0.725,0.7251,0.7251,0,0.692,0.6928,0.6918,0.6955,0.6968,0.6966,0.7014,0.7021,0.7052,0.7082,0.7084,0.7117,0.714,0.7142,0.7172,0.7144,0.7155,0.7185,0.7223,0.7169,0.7152,0.7145,0.7244,0.7245,0.7247,0.7248,0,0,0.6808,0.6874,0.6869,0.6887,0.6931,0.6938,0.6939,0.6962,0.6967,0.6992,0.6992,0.701,0.7039,0.7054,0.7087,0.708,0.7035,0.7112,0.7113,0.7095,0.7005,0.6981,0.6972,0.7058,0.7057,0.7056,0.7002,0,0.6752,0.6756,0.6801,0.6793,0.6801,0.6856,0.6856,0.6883,0.6912,0.6922,0.6954,0.6965,0.7003,0.7012,0.7009,0.7041,0.7017,0.7046,0.7058,0.7057,0.7046,0.6963,0.6937,0.6885,0.6996,0.6995,0.6994,0,0.6685,0.6708,0.67,0.6746,0.6751,0.675,0.6775,0.6785,0.6817,0.6838,0.6856,0.6894,0.6896,0.6934,0.6938,0.6956,0.6964,0.6981,0.698,0.6981,0.7021,0.696,0.6869,0.686,0.6984,0.6985,0.6986,0,0.6603,0.6631,0.6631,0.6644,0.6697,0.6695,0.6717,0.6751,0.6762,0.6785,0.6792,0.6814,0.6825,0.6841,0.6883,0.6906,0.6882,0.6923,0.6898,0.6897,0.6889,0.6888,0.6795,0.6897,0.6897,0.6897,0.6897,0,0.6534,0.6526,0.6594,0.6593,0.6587,0.6639,0.6631,0.6658,0.6688,0.6693,0.6743,0.6746,0.6803,0.6812,0.6846,0.6843,0.6848,0.6865,0.6873,0.6859,0.6857,0.6863,0.6867,0.6895,0.6895,0.6896,0.6896,0,0.6439,0.6485,0.6487,0.6538,0.6551,0.6544,0.6587,0.6588,0.6621,0.6626,0.6631,0.6681,0.6695,0.674,0.6765,0.6787,0.6774,0.6792,0.6763,0.6769,0.6741,0.6743,0.6648,0.6638,0.6747,0.6746,0.6745,0,0.6391,0.6387,0.6438,0.6446,0.6466,0.6477,0.6489,0.6541,0.6551,0.6588,0.6584,0.6603,0.662,0.664,0.6678,0.6698,0.6715,0.6681,0.6718,0.6704,0.6713,0.6712,0.6711,0.6672,0.667,0.6669,0.6668,0,0.63,0.6323,0.634,0.6364,0.6377,0.6398,0.6422,0.6425,0.6483,0.6492,0.6508,0.6522,0.6548,0.6565,0.6591,0.6613,0.6649,0.6657,0.6652,0.6636,0.6619,0.6627,0.6739,0.6658,0.6659,0.666,0.666,0.6661,0.6227,0.6226,0.6261,0.6278,0.6302,0.6323,0.6327,0.6361,0.6375,0.6401,0.6431,0.6443,0.6476,0.6514,0.6534,0.6544,0.6563,0.6557,0.6555,0.6552,0.6544,0.662,0.6549,0.6549,0.6549,0.655,0.655,0,0.6137,0.6163,0.6178,0.6211,0.6224,0.626,0.6288,0.6296,0.6306,0.6335,0.6351,0.6369,0.6386,0.6427,0.6448,0.6448,0.6465,0.6451,0.6451,0.6455,0.6526,0.6528,0.6437,0.6437,0.6437,0.6437,0.6437,0.6437,0.6092,0.6092,0.6119,0.6131,0.6158,0.6171,0.6184,0.6204,0.6227,0.6245,0.626,0.6287,0.632,0.6344,0.6362,0.6373,0.6378,0.6358,0.6375,0.644,0.645,0.646,0.6462,0.6359,0.6359,0.6303,0.6303,0.6302]}]]